Time,TemperatureF,DewpointF,PressureIn,WindDirection,WindDirectionDegrees,WindSpeedMPH,WindSpeedGustMPH,Humidity,HourlyPrecipIn,Conditions,Clouds,dailyrainin,SoftwareType,DateUTC
2013-03-13 00:13:00,23.4,19.0,30.04,NW,305,2.0,6.0,84,0.00,,,0.00,weatherlink.com 1.10,2013-03-13 05:13:00,
2013-03-13 00:28:00,23.3,19.0,30.04,West,271,3.0,5.0,84,0.00,,,0.00,weatherlink.com 1.10,2013-03-13 05:28:00,
2013-03-13 00:43:00,23.3,19.0,30.04,WNW,289,1.0,5.0,84,0.00,,,0.00,weatherlink.com 1.10,2013-03-13 05:43:00,
2013-03-13 00:58:00,23.1,19.0,30.04,West,277,3.0,4.0,85,0.00,,,0.00,weatherlink.com 1.10,2013-03-13 05:58:00,
2013-03-13 01:13:00,22.9,19.0,30.04,WNW,294,3.0,5.0,85,0.00,,,0.00,weatherlink.com 1.10,2013-03-13 06:13:00,
2013-03-13 01:28:00,22.7,19.0,30.05,WNW,288,2.0,4.0,85,0.00,,,0.00,weatherlink.com 1.10,2013-03-13 06:28:00,
2013-03-13 01:43:00,22.5,19.0,30.05,WNW,298,2.0,5.0,86,0.00,,,0.00,weatherlink.com 1.10,2013-03-13 06:43:00,
2013-03-13 01:58:00,22.4,19.0,30.06,NW,315,2.0,4.0,86,0.00,,,0.00,weatherlink.com 1.10,2013-03-13 06:58:00,
2013-03-13 02:13:00,22.4,19.0,30.06,WSW,258,2.0,5.0,86,0.00,,,0.00,weatherlink.com 1.10,2013-03-13 07:13:00,
2013-03-13 02:28:00,22.2,18.0,30.07,NW,306,2.0,5.0,85,0.00,,,0.00,weatherlink.com 1.10,2013-03-13 07:28:00,
2013-03-13 02:44:00,22.1,19.0,30.07,WNW,284,3.0,4.0,86,0.00,,,0.00,weatherlink.com 1.10,2013-03-13 07:44:00,
2013-03-13 02:58:00,22.2,19.0,30.08,WNW,292,1.0,4.0,86,0.00,,,0.00,weatherlink.com 1.10,2013-03-13 07:58:00,
2013-03-13 03:14:00,22.2,19.0,30.08,WNW,296,3.0,5.0,86,0.00,,,0.00,weatherlink.com 1.10,2013-03-13 08:14:00,
2013-03-13 03:29:00,22.0,19.0,30.08,NW,308,2.0,5.0,86,0.00,,,0.00,weatherlink.com 1.10,2013-03-13 08:29:00,
2013-03-13 03:44:00,22.4,19.0,30.08,NW,310,3.0,7.0,86,0.00,,,0.00,weatherlink.com 1.10,2013-03-13 08:44:00,
2013-03-13 03:59:00,22.6,19.0,30.09,WNW,294,2.0,6.0,84,0.00,,,0.00,weatherlink.com 1.10,2013-03-13 08:59:00,
2013-03-13 04:14:00,22.6,19.0,30.09,West,279,4.0,6.0,84,0.00,,,0.00,weatherlink.com 1.10,2013-03-13 09:14:00,
2013-03-13 04:29:00,22.3,19.0,30.10,NNW,328,1.0,7.0,85,0.00,,,0.00,weatherlink.com 1.10,2013-03-13 09:29:00,
2013-03-13 04:44:00,21.7,17.0,30.11,WNW,295,3.0,11.0,82,0.00,,,0.00,weatherlink.com 1.10,2013-03-13 09:44:00,
2013-03-13 04:59:00,21.4,16.0,30.12,North,351,6.0,9.0,80,0.00,,,0.00,weatherlink.com 1.10,2013-03-13 09:59:00,
2013-03-13 05:14:00,21.0,16.0,30.12,NW,313,2.0,6.0,81,0.00,,,0.00,weatherlink.com 1.10,2013-03-13 10:14:00,
2013-03-13 05:29:00,20.7,15.0,30.13,NW,305,2.0,7.0,80,0.00,,,0.00,weatherlink.com 1.10,2013-03-13 10:29:00,
2013-03-13 05:44:00,20.4,15.0,30.14,WNW,303,2.0,8.0,81,0.00,,,0.00,weatherlink.com 1.10,2013-03-13 10:44:00,
2013-03-13 05:59:00,20.1,15.0,30.15,NW,311,2.0,6.0,81,0.00,,,0.00,weatherlink.com 1.10,2013-03-13 10:59:00,
2013-03-13 06:14:00,19.7,15.0,30.15,NW,313,1.0,4.0,82,0.00,,,0.00,weatherlink.com 1.10,2013-03-13 11:14:00,
2013-03-13 06:29:00,19.5,15.0,30.16,NW,312,3.0,4.0,83,0.00,,,0.00,weatherlink.com 1.10,2013-03-13 11:29:00,
2013-03-13 06:44:00,19.4,15.0,30.16,WNW,299,3.0,8.0,83,0.00,,,0.00,weatherlink.com 1.10,2013-03-13 11:44:00,
2013-03-13 06:59:00,19.0,15.0,30.17,NW,308,1.0,5.0,84,0.00,,,0.00,weatherlink.com 1.10,2013-03-13 11:59:00,
2013-03-13 07:14:00,18.8,15.0,30.18,NW,324,3.0,7.0,84,0.00,,,0.00,weatherlink.com 1.10,2013-03-13 12:14:00,
2013-03-13 07:29:00,18.7,15.0,30.18,WNW,301,2.0,7.0,84,0.00,,,0.00,weatherlink.com 1.10,2013-03-13 12:29:00,
2013-03-13 07:44:00,18.8,15.0,30.19,WNW,302,2.0,6.0,84,0.00,,,0.00,weatherlink.com 1.10,2013-03-13 12:44:00,
2013-03-13 07:59:00,18.9,15.0,30.20,WNW,296,2.0,6.0,84,0.00,,,0.00,weatherlink.com 1.10,2013-03-13 12:59:00,
2013-03-13 08:14:00,19.4,15.0,30.20,WNW,298,2.0,7.0,84,0.00,,,0.00,weatherlink.com 1.10,2013-03-13 13:14:00,
2013-03-13 08:29:00,20.1,16.0,30.21,NNW,338,2.0,7.0,83,0.00,,,0.00,weatherlink.com 1.10,2013-03-13 13:29:00,
2013-03-13 08:44:00,20.6,16.0,30.22,WNW,285,3.0,9.0,81,0.00,,,0.00,weatherlink.com 1.10,2013-03-13 13:44:00,
2013-03-13 08:59:00,21.0,16.0,30.22,NW,308,1.0,9.0,80,0.00,,,0.00,weatherlink.com 1.10,2013-03-13 13:59:00,
2013-03-13 09:15:00,21.5,15.0,30.23,NW,318,3.0,10.0,77,0.00,,,0.00,weatherlink.com 1.10,2013-03-13 14:15:00,
2013-03-13 09:30:00,22.2,15.0,30.23,NNW,340,3.0,8.0,75,0.00,,,0.00,weatherlink.com 1.10,2013-03-13 14:30:00,
2013-03-13 09:45:00,22.6,15.0,30.24,West,271,3.0,10.0,73,0.00,,,0.00,weatherlink.com 1.10,2013-03-13 14:45:00,
2013-03-13 10:00:00,23.1,15.0,30.25,NW,309,2.0,9.0,72,0.00,,,0.00,weatherlink.com 1.10,2013-03-13 15:00:00,
2013-03-13 10:15:00,23.8,15.0,30.26,NW,304,2.0,12.0,69,0.00,,,0.00,weatherlink.com 1.10,2013-03-13 15:15:00,
2013-03-13 10:30:00,24.3,15.0,30.26,WNW,294,4.0,12.0,69,0.00,,,0.00,weatherlink.com 1.10,2013-03-13 15:30:00,
2013-03-13 10:45:00,24.6,14.0,30.26,NW,312,1.0,9.0,64,0.00,,,0.00,weatherlink.com 1.10,2013-03-13 15:45:00,
2013-03-13 11:00:00,25.4,15.0,30.27,West,277,5.0,9.0,64,0.00,,,0.00,weatherlink.com 1.10,2013-03-13 16:00:00,
2013-03-13 11:15:00,25.7,15.0,30.27,West,279,2.0,8.0,65,0.00,,,0.00,weatherlink.com 1.10,2013-03-13 16:15:00,
2013-03-13 11:30:00,25.2,15.0,30.28,WNW,294,4.0,10.0,65,0.00,,,0.00,weatherlink.com 1.10,2013-03-13 16:30:00,
2013-03-13 11:45:00,25.7,16.0,30.29,WNW,302,2.0,9.0,66,0.00,,,0.00,weatherlink.com 1.10,2013-03-13 16:45:00,
2013-03-13 12:00:00,25.8,15.0,30.29,NW,314,1.0,8.0,64,0.00,,,0.00,weatherlink.com 1.10,2013-03-13 17:00:00,
2013-03-13 12:15:00,26.3,15.0,30.29,WNW,288,5.0,9.0,62,0.00,,,0.00,weatherlink.com 1.10,2013-03-13 17:15:00,
2013-03-13 12:30:00,26.6,15.0,30.30,West,281,2.0,7.0,61,0.00,,,0.00,weatherlink.com 1.10,2013-03-13 17:30:00,
2013-03-13 12:45:00,27.0,15.0,30.30,WNW,290,2.0,9.0,61,0.00,,,0.00,weatherlink.com 1.10,2013-03-13 17:45:00,
2013-03-13 13:00:00,27.6,14.0,30.30,West,274,2.0,7.0,58,0.00,,,0.00,weatherlink.com 1.10,2013-03-13 18:00:00,
2013-03-13 13:15:00,27.4,14.0,30.30,WNW,298,4.0,8.0,57,0.00,,,0.00,weatherlink.com 1.10,2013-03-13 18:15:00,
2013-03-13 13:30:00,28.3,15.0,30.30,WNW,299,3.0,8.0,57,0.00,,,0.00,weatherlink.com 1.10,2013-03-13 18:30:00,
2013-03-13 13:45:00,28.6,15.0,30.29,NW,309,3.0,9.0,58,0.00,,,0.00,weatherlink.com 1.10,2013-03-13 18:45:00,
2013-03-13 14:00:00,28.9,13.0,30.30,WNW,286,2.0,9.0,51,0.00,,,0.00,weatherlink.com 1.10,2013-03-13 19:00:00,
2013-03-13 14:15:00,29.2,14.0,30.29,WNW,298,3.0,8.0,54,0.00,,,0.00,weatherlink.com 1.10,2013-03-13 19:15:00,
2013-03-13 14:30:00,29.5,13.0,30.29,WNW,290,4.0,10.0,50,0.00,,,0.00,weatherlink.com 1.10,2013-03-13 19:30:00,
2013-03-13 14:45:00,30.0,13.0,30.29,West,275,3.0,8.0,50,0.00,,,0.00,weatherlink.com 1.10,2013-03-13 19:45:00,
2013-03-13 15:00:00,30.4,14.0,30.29,WSW,252,5.0,7.0,50,0.00,,,0.00,weatherlink.com 1.10,2013-03-13 20:00:00,
2013-03-13 15:15:00,30.9,15.0,30.29,West,271,4.0,6.0,52,0.00,,,0.00,weatherlink.com 1.10,2013-03-13 20:15:00,
2013-03-13 15:30:00,31.1,13.0,30.29,NW,304,3.0,6.0,48,0.00,,,0.00,weatherlink.com 1.10,2013-03-13 20:30:00,
2013-03-13 16:00:00,31.5,12.0,30.30,WNW,302,1.0,9.0,44,0.01,,,0.01,weatherlink.com 1.10,2013-03-13 21:00:00,
2013-03-13 16:15:00,32.0,14.0,30.30,NW,315,7.0,8.0,47,0.01,,,0.01,weatherlink.com 1.10,2013-03-13 21:15:00,
2013-03-13 16:30:00,31.9,13.0,30.30,WNW,302,4.0,8.0,45,0.01,,,0.01,weatherlink.com 1.10,2013-03-13 21:30:00,
2013-03-13 16:45:00,32.3,15.0,30.30,WNW,292,4.0,5.0,49,0.01,,,0.01,weatherlink.com 1.10,2013-03-13 21:45:00,
2013-03-13 17:01:00,31.9,15.0,30.30,WNW,290,2.0,5.0,51,0.00,,,0.01,weatherlink.com 1.10,2013-03-13 22:01:00,
2013-03-13 17:16:00,32.0,15.0,30.30,WNW,287,2.0,4.0,50,0.00,,,0.01,weatherlink.com 1.10,2013-03-13 22:16:00,
2013-03-13 17:31:00,31.5,16.0,30.30,West,268,2.0,5.0,52,0.00,,,0.01,weatherlink.com 1.10,2013-03-13 22:31:00,
2013-03-13 17:46:00,31.4,15.0,30.30,West,280,2.0,3.0,52,0.00,,,0.01,weatherlink.com 1.10,2013-03-13 22:46:00,
2013-03-13 18:01:00,31.2,17.0,30.30,WNW,289,2.0,3.0,55,0.00,,,0.01,weatherlink.com 1.10,2013-03-13 23:01:00,
2013-03-13 18:16:00,30.5,17.0,30.31,West,276,1.0,3.0,57,0.00,,,0.01,weatherlink.com 1.10,2013-03-13 23:16:00,
2013-03-13 18:31:00,29.9,17.0,30.31,WNW,285,1.0,2.0,60,0.00,,,0.01,weatherlink.com 1.10,2013-03-13 23:31:00,
2013-03-13 19:16:00,28.0,18.0,30.30,West,279,0.0,2.0,65,0.00,,,0.01,weatherlink.com 1.10,2013-03-14 00:16:00,
2013-03-13 19:31:00,27.3,18.0,30.31,West,279,0.0,2.0,68,0.00,,,0.01,weatherlink.com 1.10,2013-03-14 00:31:00,
2013-03-13 20:16:00,26.0,17.0,30.31,West,281,0.0,0.0,70,0.00,,,0.01,weatherlink.com 1.10,2013-03-14 01:16:00,
2013-03-13 21:01:00,25.3,16.0,30.30,West,280,0.0,0.0,68,0.00,,,0.01,weatherlink.com 1.10,2013-03-14 02:01:00,
2013-03-13 21:31:00,24.5,16.0,30.31,West,280,0.0,0.0,71,0.00,,,0.01,weatherlink.com 1.10,2013-03-14 02:31:00,
2013-03-13 22:01:00,24.0,18.0,30.30,West,279,0.0,2.0,77,0.00,,,0.01,weatherlink.com 1.10,2013-03-14 03:01:00,
2013-03-13 23:01:00,23.8,18.0,30.31,West,264,2.0,4.0,78,0.00,,,0.01,weatherlink.com 1.10,2013-03-14 04:01:00,
2013-03-13 23:31:00,23.1,18.0,30.31,West,264,1.0,2.0,80,0.00,,,0.01,weatherlink.com 1.10,2013-03-14 04:31:00,